カタログに戻る

THORAD AGENA D DEB

運用中LEO
NORAD 5430·DEBRIS·🇺🇸 United States

打ち上げ Sep 30, 1969 から Vandenberg Space Force Base

Loading…

次のパス (今後24時間)

TLE

最新Source: Space-Track

元期: Sep 14, 2026, 04:56 UTC

1 05430U 69082HW  26257.20581439  .00000575  00000-0  28609-3 0  9996
2 05430  70.1066 184.1647 0057653 193.0355 166.9278 14.20936542925884

AllMySatでTHORAD AGENA D DEBをリアルタイム追跡

Download on the App Store